Total_Precipitation_Accumulation
0.01 0.03 0.06 0.07 0.08 0.08 0.12 0.14 0.18 0.21 0.18 0.22 0.38 0.57 0.62 0.80 1.09 1.40 1.75 1.98 2.32 2.66 3.03 3.47 3.56 3.82 4.14 4.75 5.23 5.48 5.52 5.39 5.15 4.86 4.52 4.32 4.25 4.18 4.00 3.79 3.62 3.50 3.40 3.46
0.02 0.04 0.04 0.05 0.08 0.08 0.11 0.14 0.18 0.21 0.19 0.21 0.40 0.60 0.70 1.04 1.36 1.42 1.59 1.72 1.91 2.35 2.70 3.04 3.24 3.33 3.76 4.35 4.81 5.00 4.76 4.68 4.54 4.35 4.30 4.29 4.49 4.19 3.95 3.79 3.62 3.35 3.31 3.40
0.04 0.05 0.03 0.03 0.05 0.07 0.10 0.11 0.15 0.22 0.22 0.28 0.43 0.79 0.99 1.20 1.34 1.37 1.46 1.60 1.71 1.99 2.31 2.64 2.79 2.95 3.19 3.32 3.60 3.81 3.96 3.89 3.82 3.82 3.82 3.89 4.15 3.98 3.83 3.70 3.59 3.20 3.02 3.00
0.04 0.04 0.05 0.05 0.06 0.08 0.10 0.10 0.10 0.15 0.23 0.37 0.51 1.10 1.34 1.29 1.34 1.46 1.44 1.41 1.65 1.95 1.94 2.06 2.31 2.48 2.77 2.96 3.16 3.24 3.29 3.39 3.42 3.50 3.43 3.29 3.25 3.26 3.25 3.32 3.25 3.19 2.99 2.88
0.05 0.05 0.05 0.07 0.07 0.07 0.08 0.08 0.09 0.19 0.29 0.40 0.51 0.85 1.25 1.57 1.64 1.44 1.37 1.25 1.45 1.59 1.50 1.50 1.69 1.84 2.12 2.37 2.61 2.74 2.85 2.96 3.11 3.17 3.14 3.13 2.95 2.97 3.05 3.12 3.12 3.07 2.99 2.92
0.05 0.06 0.05 0.05 0.05 0.06 0.06 0.10 0.17 0.32 0.51 0.76 0.64 0.78 1.20 1.52 1.78 1.52 1.30 1.21 1.31 1.28 1.25 1.37 1.53 1.64 1.80 2.11 2.30 2.41 2.54 2.60 2.72 2.78 2.89 3.02 3.00 2.92 2.91 2.93 2.92 2.90 2.90 2.79
0.12 0.12 0.10 0.06 0.06 0.07 0.08 0.17 0.56 0.94 1.21 1.24 0.81 0.84 1.19 1.18 1.21 1.24 1.20 1.24 1.25 1.19 1.15 1.15 1.24 1.39 1.58 1.82 2.01 2.06 2.16 2.24 2.25 2.30 2.48 2.66 2.70 2.74 2.62 2.56 2.58 2.59 2.42 2.32
0.17 0.25 0.15 0.09 0.09 0.10 0.13 0.19 0.62 0.96 1.00 1.05 0.90 1.16 1.49 1.18 1.09 1.02 1.10 1.20 1.20 1.06 1.00 1.03 1.13 1.18 1.27 1.47 1.69 1.74 1.83 1.94 2.10 2.14 2.23 2.36 2.38 2.39 2.27 2.35 2.35 2.29 2.07 2.00
0.11 0.11 0.08 0.08 0.09 0.13 0.19 0.20 0.28 0.53 0.64 0.81 1.01 1.29 1.46 1.14 1.10 1.21 1.32 1.30 1.25 1.00 0.86 0.89 0.89 0.93 0.95 1.07 1.24 1.36 1.62 1.77 1.88 1.98 2.08 2.10 2.08 2.14 2.10 2.17 2.31 2.20 2.18 2.04
0.07 0.06 0.07 0.08 0.09 0.13 0.17 0.17 0.23 0.46 0.70 0.87 0.98 1.34 1.64 1.59 1.43 1.35 1.41 1.25 0.98 0.81 0.71 0.68 0.68 0.68 0.77 0.89 1.00 1.15 1.35 1.45 1.56 1.76 1.89 1.81 2.00 2.08 2.07 2.07 2.01 2.04 2.13 2.11
0.06 0.05 0.07 0.10 0.12 0.15 0.20 0.23 0.31 0.45 0.49 0.72 1.11 1.34 1.26 1.31 1.23 1.27 1.25 1.08 0.85 0.69 0.63 0.66 0.66 0.68 0.75 0.82 0.97 1.14 1.35 1.50 1.50 1.60 1.73 1.78 1.88 2.01 2.04 1.97 1.88 1.92 2.00 2.04
0.07 0.07 0.11 0.17 0.18 0.17 0.18 0.21 0.31 0.45 0.44 0.49 0.79 1.05 0.74 0.78 0.80 0.87 0.93 0.80 0.73 0.70 0.66 0.73 0.78 0.78 0.80 0.89 1.03 1.21 1.35 1.51 1.57 1.68 1.87 2.00 1.96 1.96 2.00 1.96 1.86 1.78 1.74 1.82
0.12 0.12 0.18 0.38 0.49 0.30 0.20 0.19 0.22 0.27 0.29 0.32 0.58 0.82 0.56 0.63 0.74 0.86 0.95 0.95 0.90 0.81 0.67 0.72 0.91 0.98 0.92 1.00 1.18 1.39 1.53 1.63 1.71 1.84 2.09 2.22 2.08 1.98 2.02 1.95 1.77 1.66 1.59 1.66
0.12 0.16 0.20 0.42 0.53 0.41 0.31 0.24 0.20 0.24 0.32 0.30 0.33 0.52 0.55 0.65 0.80 0.89 0.96 0.98 0.87 0.77 0.71 0.78 0.89 0.95 1.09 1.16 1.28 1.46 1.47 1.62 1.73 1.76 1.95 2.10 2.03 1.88 1.77 1.74 1.70 1.69 1.66 1.60
0.10 0.13 0.14 0.17 0.25 0.31 0.33 0.27 0.22 0.19 0.22 0.35 0.34 0.40 0.53 0.69 0.71 0.88 0.95 0.89 0.83 0.76 0.72 0.79 0.94 0.95 0.96 1.03 1.04 1.12 1.14 1.36 1.39 1.46 1.55 1.64 1.59 1.59 1.54 1.48 1.44 1.50 1.57 1.54
0.19 0.19 0.17 0.16 0.19 0.23 0.26 0.26 0.19 0.14 0.13 0.16 0.29 0.53 0.56 0.61 0.67 0.81 0.82 0.80 0.80 0.87 0.91 0.94 0.99 1.07 0.98 0.93 0.87 0.81 0.90 1.10 1.25 1.37 1.32 1.37 1.45 1.37 1.33 1.35 1.33 1.38 1.47 1.58
0.38 0.33 0.30 0.26 0.22 0.27 0.32 0.27 0.20 0.14 0.13 0.15 0.32 0.60 0.61 0.64 0.71 0.84 0.91 0.92 0.81 0.81 0.87 0.98 1.05 1.05 0.90 0.86 0.83 0.85 0.89 0.99 1.09 1.19 1.33 1.43 1.47 1.41 1.34 1.38 1.49 1.50 1.63 1.69
0.45 0.50 0.42 0.37 0.45 0.59 0.40 0.26 0.22 0.23 0.21 0.22 0.29 0.39 0.48 0.63 0.67 0.69 0.76 0.89 0.91 0.92 1.00 1.06 1.03 0.98 0.94 0.90 0.94 0.98 0.96 1.04 1.15 1.19 1.31 1.42 1.44 1.39 1.38 1.37 1.45 1.57 1.74 1.79
0.36 0.53 0.55 0.52 0.61 0.53 0.44 0.38 0.35 0.39 0.40 0.37 0.46 0.45 0.51 0.58 0.65 0.81 0.70 0.74 0.77 0.93 0.99 1.04 1.06 1.08 1.09 1.04 1.11 1.14 1.10 1.14 1.26 1.37 1.45 1.41 1.45 1.51 1.54 1.57 1.62 1.69 1.72 1.74
0.46 0.59 0.73 0.68 0.82 0.82 0.68 0.57 0.51 0.53 0.87 0.66 0.62 0.64 0.72 0.78 0.91 1.10 0.90 0.79 0.86 0.94 0.92 0.97 0.97 1.05 1.15 1.17 1.28 1.33 1.34 1.35 1.41 1.53 1.63 1.66 1.75 1.82 1.79 1.91 2.04 2.05 2.04 1.99
0.95 0.95 0.87 0.88 1.00 1.00 0.78 0.67 0.63 1.05 1.27 0.83 0.74 0.80 0.79 0.84 0.97 1.00 1.00 1.00 0.98 0.81 0.78 0.84 0.94 0.96 1.06 1.26 1.46 1.60 1.58 1.51 1.60 1.73 1.88 2.03 2.13 2.30 2.45 2.53 2.43 2.35 2.35 2.35
1.13 1.22 1.21 1.23 1.41 1.34 0.85 0.80 1.14 1.39 1.06 1.07 0.95 0.89 0.90 0.84 0.93 1.00 1.00 0.95 0.85 0.83 0.82 0.87 1.00 1.00 1.06 1.25 1.45 1.63 1.66 1.68 1.84 2.01 2.19 2.31 2.51 2.60 2.70 3.05 3.08 3.06 2.99 2.71
1.26 1.32 1.32 1.38 1.48 1.22 1.05 1.21 1.30 1.27 1.25 1.30 1.33 1.14 1.04 0.96 0.98 1.02 0.95 0.86 0.80 0.81 0.81 0.87 1.03 1.15 1.19 1.29 1.53 1.80 1.85 1.91 2.04 2.19 2.40 2.55 2.62 2.75 2.88 3.02 3.01 3.02 2.96 2.70
1.42 1.18 1.34 1.51 1.61 1.40 1.33 1.33 1.36 1.33 1.27 1.29 1.39 1.51 1.47 1.22 1.06 1.07 1.03 0.94 0.92 0.97 0.93 0.95 1.07 1.23 1.41 1.53 1.71 1.97 2.02 2.14 2.23 2.29 2.42 2.52 2.63 2.75 2.91 3.02 2.95 2.89 2.83 2.77
1.43 1.44 1.65 1.93 1.91 1.73 1.58 1.60 1.70 1.59 1.45 1.49 1.51 1.55 1.61 1.31 1.08 1.03 1.09 1.06 1.05 1.15 1.17 1.16 1.20 1.33 1.55 1.71 1.88 1.95 2.00 2.20 2.39 2.40 2.45 2.55 2.58 2.61 2.73 2.81 2.90 2.83 2.79 2.81
1.45 1.63 1.93 2.18 1.99 2.05 1.89 1.58 1.66 1.78 1.64 1.65 1.61 1.53 1.39 1.28 1.21 1.22 1.22 1.19 1.19 1.30 1.34 1.33 1.31 1.39 1.57 1.76 1.95 2.06 2.18 2.32 2.46 2.51 2.44 2.50 2.55 2.57 2.59 2.58 2.48 2.49 2.44 2.38